[[{"header":{"parameterUnit":"m.s-1","parameterCategory":1,"la1":30.2991,"la2":30.254,"lo1":-89.0895,"lo2":-89.0444,"dy":0.0017,"dx":0.0017,"nx":28,"ny":28,"refTime":"2024-11-25T09:00:00:Z","depth":0,"parameterNumber":2,"parameterNumberName":"U-component_of_WINDS"},"data":[0,0,0,0,0,0,0,0,0,0,0,0,0,0,0,0,0,0,0,0,0,0,0,0,0,0,0,0,0,0,0,0,0,0,0,0,0,0,0,0,0,0,0,0,0,0,0,0,0,0,0,0,0,0,0,0,0,0,-1.4298,-1.4298,0,-1.4298,-1.4298,-1.4298,-1.4306,-1.4306,-1.4306,-1.4307,-1.4305,-1.4305,-1.4305,0,0,0,0,0,0,0,0,0,0,0,0,0,-1.4304,-1.4304,-1.4298,-1.4298,-1.4298,-1.4298,-1.4298,-1.4298,-1.4306,-1.4306,-1.4307,-1.4307,-1.4305,-1.4305,-1.4305,0,0,0,0,0,0,0,0,0,0,0,0,0,-1.4302,-1.4304,-1.4298,-1.4302,-1.4302,-1.4298,-1.4298,-1.4298,-1.4306,-1.4306,-1.4307,-1.4307,-1.4306,-1.4305,-1.4305,-1.4296,0,0,-1.4304,-1.4304,0,0,0,0,0,0,0,0,-1.4302,-1.4302,-1.4301,-1.4302,-1.4302,-1.4302,-1.43,-1.4297,-1.4306,-1.4305,-1.4307,-1.4307,-1.4304,-1.4304,-1.4303,-1.4296,-1.4296,-1.4304,-1.4303,-1.4303,-1.4303,0,0,0,0,0,0,0,-1.4303,-1.4302,-1.4298,-1.4301,-1.4302,-1.4304,-1.4304,-1.4299,-1.4302,-1.4305,-1.4305,-1.4305,-1.4304,-1.4303,-1.4303,-1.4296,-1.4304,-1.4303,-1.4303,-1.4303,-1.4281,-1.4281,0,0,0,0,0,0,-1.4302,-1.4302,-1.4298,-1.4298,-1.4303,-1.4303,-1.4303,-1.4302,-1.4302,-1.4303,-1.4305,-1.4306,-1.4304,-1.4303,-1.4303,-1.4292,-1.4303,-1.4303,-1.4303,-1.4282,-1.4281,-1.4281,0,0,0,0,0,0,-1.4302,-1.4302,-1.4298,-1.43,-1.43,-1.4303,-1.4301,-1.4302,-1.4301,-1.4303,-1.4303,-1.4303,-1.4304,-1.4304,-1.4298,-1.4292,-1.4303,-1.4302,-1.4282,-1.4281,-1.4281,-1.4271,0,0,0,0,0,0,-1.4302,-1.4302,-1.4299,-1.43,-1.43,-1.4293,-1.4301,-1.4302,-1.43,-1.4301,-1.4301,-1.4302,-1.4304,-1.4298,-1.4297,-1.4292,-1.4302,-1.4283,-1.4282,-1.4281,-1.4272,-1.427,-1.4269,0,0,0,0,0,-1.4303,-1.4296,-1.4299,-1.4298,-1.4296,-1.4293,-1.4292,-1.4296,-1.43,-1.4297,-1.4298,-1.4302,-1.4293,-1.4298,-1.4297,-1.4291,-1.4283,-1.4282,-1.4281,-1.4272,-1.427,-1.4269,0,0,0,0,0,0,-1.4293,-1.4296,-1.4299,-1.4292,-1.4292,-1.4294,-1.429,-1.4294,-1.4292,-1.4293,-1.4296,-1.4296,-1.429,-1.429,-1.4295,-1.4282,-1.4289,-1.4288,-1.4282,-1.428,-1.4279,-1.4279,-1.4302,0,0,0,0,0,-1.429,-1.4288,-1.429,-1.4284,-1.4284,-1.4287,-1.4286,-1.4288,-1.4288,-1.4288,-1.4289,-1.4288,-1.4285,-1.4283,-1.4281,-1.4272,-1.4272,-1.4268,-1.4266,-1.4265,-1.4264,-1.4259,-1.4257,-1.4278,-1.4278,-1.4278,0,0,-1.4284,-1.4285,-1.4283,-1.4282,-1.4282,-1.4279,-1.4287,-1.4283,-1.428,-1.4287,-1.4281,-1.4282,-1.4282,-1.4274,-1.4271,-1.4274,-1.4258,-1.4264,-1.4263,-1.4262,-1.4258,-1.4256,-1.4254,-1.4278,-1.4278,-1.4278,0,0,-1.4271,-1.4272,-1.4267,-1.4267,-1.4268,-1.427,-1.4268,-1.427,-1.427,-1.4265,-1.427,-1.4267,-1.4262,-1.4261,-1.426,-1.4248,-1.4251,-1.4247,-1.4238,-1.4233,-1.4232,-1.423,-1.4225,-1.4223,-1.4246,-1.4246,-1.4246,0,-1.4263,-1.4259,-1.4264,-1.426,-1.4259,-1.4265,-1.426,-1.426,-1.4259,-1.4258,-1.4262,-1.4256,-1.4256,-1.4248,-1.4245,-1.4244,-1.4242,-1.4246,-1.4232,-1.423,-1.4229,-1.4224,-1.4222,-1.4245,-1.4245,-1.4245,-1.4245,0,-1.4249,-1.4246,-1.4241,-1.4241,-1.424,-1.4235,-1.4238,-1.4237,-1.424,-1.4241,-1.4235,-1.4236,-1.4234,-1.4232,-1.4235,-1.4225,-1.4227,-1.4231,-1.4237,-1.4226,-1.4221,-1.4219,-1.4244,-1.4244,-1.4245,-1.4245,0,0,-1.4229,-1.4232,-1.423,-1.4229,-1.4231,-1.4228,-1.4223,-1.4221,-1.4219,-1.4219,-1.4215,-1.4211,-1.4215,-1.4214,-1.4216,-1.4212,-1.4201,-1.4217,-1.4217,-1.4213,-1.4189,-1.4184,-1.4182,-1.4204,-1.4203,-1.4203,-1.4188,0,-1.4215,-1.4208,-1.4212,-1.4204,-1.42,-1.4207,-1.4203,-1.4203,-1.4205,-1.4202,-1.4204,-1.42,-1.4206,-1.4206,-1.4202,-1.4203,-1.4196,-1.4204,-1.4199,-1.4198,-1.4197,-1.418,-1.4175,-1.4161,-1.4187,-1.4186,-1.4186,0,-1.4198,-1.4198,-1.4189,-1.419,-1.4189,-1.4186,-1.4184,-1.4182,-1.4182,-1.4183,-1.4182,-1.4186,-1.4181,-1.4188,-1.4181,-1.4187,-1.4185,-1.4185,-1.4185,-1.4183,-1.4191,-1.4177,-1.4157,-1.4154,-1.4183,-1.4184,-1.4184,0,-1.4183,-1.418,-1.4174,-1.4174,-1.4176,-1.4173,-1.4174,-1.4174,-1.4173,-1.4171,-1.417,-1.4168,-1.4167,-1.4165,-1.4168,-1.4173,-1.416,-1.4168,-1.416,-1.416,-1.4156,-1.4156,-1.4135,-1.4157,-1.4157,-1.4157,-1.4157,0,-1.4167,-1.4161,-1.4167,-1.4164,-1.4157,-1.4162,-1.4156,-1.4157,-1.4158,-1.4154,-1.416,-1.4156,-1.4161,-1.4158,-1.416,-1.4153,-1.4153,-1.4153,-1.4154,-1.4152,-1.4152,-1.415,-1.415,-1.4157,-1.4157,-1.4157,-1.4157,0,-1.4148,-1.4152,-1.4146,-1.4149,-1.415,-1.4145,-1.4147,-1.4143,-1.4146,-1.4141,-1.414,-1.4143,-1.414,-1.4143,-1.414,-1.4141,-1.4132,-1.4134,-1.4132,-1.4132,-1.4124,-1.4124,-1.4099,-1.4096,-1.4122,-1.4121,-1.4121,0,-1.4137,-1.4132,-1.4135,-1.4133,-1.4133,-1.4131,-1.4129,-1.4134,-1.4133,-1.4133,-1.4129,-1.4126,-1.4124,-1.4118,-1.4119,-1.4117,-1.4118,-1.411,-1.4118,-1.4116,-1.4117,-1.4116,-1.4115,-1.4108,-1.4107,-1.4107,-1.4107,0,-1.4116,-1.4118,-1.4116,-1.4115,-1.4113,-1.4112,-1.4112,-1.411,-1.4115,-1.4113,-1.411,-1.4108,-1.4105,-1.4101,-1.4099,-1.41,-1.4104,-1.4105,-1.4103,-1.41,-1.4098,-1.4098,-1.4126,-1.4105,-1.4105,-1.4105,-1.4105,-1.4105,-1.41,-1.4096,-1.4097,-1.4094,-1.4095,-1.4094,-1.4091,-1.4093,-1.4091,-1.4089,-1.4092,-1.4088,-1.4088,-1.4085,-1.4085,-1.4081,-1.4085,-1.4082,-1.4081,-1.408,-1.4078,-1.41,-1.4081,-1.4081,-1.4081,-1.4081,-1.4082,0,-1.4078,-1.4079,-1.4077,-1.4076,-1.4074,-1.408,-1.4079,-1.4077,-1.4073,-1.4073,-1.4071,-1.4067,-1.4064,-1.4066,-1.4063,-1.406,-1.4062,-1.4059,-1.4058,-1.4058,-1.4076,-1.4077,-1.4057,-1.4057,-1.4057,-1.4057,-1.4057,-1.4057,-1.4066,-1.406,-1.4062,-1.4056,-1.4058,-1.4054,-1.4053,-1.4052,-1.4052,-1.4048,-1.4045,-1.4047,-1.4048,-1.4045,-1.4042,-1.4043,-1.4041,-1.4037,-1.4038,-1.4054,-1.4057,-1.4059,-1.406,-1.4037,-1.4037,-1.402,-1.402,-1.402]},{"header":{"parameterUnit":"m.s-1","parameterCategory":1,"la1":30.2991,"la2":30.254,"lo1":-89.0895,"lo2":-89.0444,"dy":0.0017,"dx":0.0017,"nx":28,"ny":28,"refTime":"2024-11-25T09:00:00:Z","depth":0,"parameterNumber":3,"parameterNumberName":"V-component_of_WINDS"},"data":[0,0,0,0,0,0,0,0,0,0,0,0,0,0,0,0,0,0,0,0,0,0,0,0,0,0,0,0,0,0,0,0,0,0,0,0,0,0,0,0,0,0,0,0,0,0,0,0,0,0,0,0,0,0,0,0,0,0,2.6294,2.6294,0,2.6299,2.6299,2.6299,2.6277,2.6276,2.6276,2.6275,2.628,2.6281,2.6281,0,0,0,0,0,0,0,0,0,0,0,0,0,2.6263,2.6264,2.6294,2.6294,2.6294,2.6299,2.6299,2.6299,2.6277,2.6276,2.6275,2.6275,2.628,2.628,2.6281,0,0,0,0,0,0,0,0,0,0,0,0,0,2.6273,2.6264,2.6294,2.6283,2.6282,2.6299,2.6299,2.6299,2.6277,2.6276,2.6275,2.6274,2.6279,2.628,2.6281,2.6308,0,0,2.6285,2.6285,0,0,0,0,0,0,0,0,2.6273,2.6275,2.6285,2.6284,2.6283,2.6286,2.629,2.6302,2.6277,2.6279,2.6275,2.6274,2.6283,2.6284,2.6287,2.6308,2.6309,2.6285,2.6286,2.6286,2.6286,0,0,0,0,0,0,0,2.6272,2.6274,2.6296,2.6285,2.6284,2.6278,2.6279,2.6293,2.6286,2.6279,2.6277,2.6278,2.6282,2.6286,2.6287,2.6309,2.6285,2.6286,2.6287,2.6287,2.6353,2.6354,0,0,0,0,0,0,2.6273,2.6274,2.6296,2.6296,2.6276,2.628,2.628,2.6286,2.6286,2.6285,2.6279,2.6277,2.6284,2.6285,2.6287,2.6319,2.6286,2.6287,2.6288,2.6352,2.6354,2.6355,0,0,0,0,0,0,2.6272,2.6275,2.6295,2.6285,2.6287,2.6281,2.6288,2.6287,2.6291,2.6286,2.6285,2.6284,2.6284,2.6285,2.6303,2.6318,2.6288,2.6289,2.6351,2.6353,2.6354,2.6382,0,0,0,0,0,0,2.6272,2.6275,2.6285,2.6285,2.6287,2.6312,2.6289,2.6288,2.6293,2.629,2.6291,2.629,2.6283,2.6302,2.6304,2.6319,2.629,2.635,2.6352,2.6354,2.638,2.6385,2.6389,0,0,0,0,0,2.6271,2.6293,2.6286,2.6289,2.63,2.6313,2.6314,2.6306,2.6294,2.6304,2.6302,2.629,2.6316,2.6304,2.6307,2.6322,2.6349,2.6351,2.6353,2.6378,2.6384,2.6389,0,0,0,0,0,0,2.6294,2.6292,2.6285,2.6307,2.6311,2.6309,2.6322,2.6312,2.6319,2.6316,2.6306,2.6306,2.6326,2.6326,2.6312,2.6348,2.633,2.6333,2.6348,2.6353,2.6358,2.6358,2.629,0,0,0,0,0,2.6302,2.6313,2.6311,2.6331,2.6333,2.6327,2.6333,2.6326,2.6329,2.633,2.6329,2.6332,2.6341,2.6347,2.6355,2.638,2.638,2.6392,2.6396,2.64,2.6403,2.6417,2.6422,2.6363,2.6363,2.6363,0,0,2.6319,2.6319,2.6326,2.6336,2.6337,2.6349,2.6328,2.6341,2.635,2.6332,2.6349,2.6348,2.6351,2.6373,2.6382,2.6373,2.6419,2.6403,2.6406,2.6407,2.642,2.6425,2.643,2.6364,2.6364,2.6364,0,0,2.6355,2.6356,2.6373,2.6375,2.6378,2.6375,2.6379,2.6379,2.6378,2.6395,2.6382,2.6392,2.6408,2.641,2.6414,2.6451,2.6441,2.6454,2.6477,2.6491,2.6495,2.65,2.6514,2.6519,2.6457,2.6457,2.6457,0,2.6374,2.6392,2.6383,2.6397,2.6402,2.6387,2.6404,2.6407,2.6412,2.6416,2.6405,2.6425,2.6426,2.6448,2.6458,2.6461,2.6465,2.6454,2.6495,2.65,2.6503,2.6517,2.6522,2.6459,2.6459,2.6458,2.6458,0,2.6416,2.6429,2.6442,2.6449,2.6455,2.6471,2.6464,2.6471,2.6465,2.6462,2.648,2.648,2.6488,2.6493,2.6486,2.6515,2.6509,2.6497,2.6479,2.6511,2.6523,2.6528,2.6461,2.6461,2.646,2.646,0,0,2.6468,2.6469,2.6475,2.6478,2.648,2.6489,2.6505,2.6513,2.652,2.6524,2.6537,2.6551,2.654,2.6544,2.6537,2.6549,2.658,2.6536,2.6536,2.6544,2.6612,2.6621,2.6627,2.6573,2.6574,2.6574,2.6612,0,2.6503,2.653,2.6523,2.6549,2.6561,2.6547,2.656,2.6563,2.6561,2.657,2.6567,2.6578,2.6562,2.6565,2.6576,2.6574,2.6593,2.6571,2.6585,2.6585,2.6585,2.6634,2.6644,2.6679,2.6617,2.6618,2.6618,0,2.6549,2.6556,2.6584,2.6585,2.659,2.6602,2.6609,2.6618,2.6622,2.6619,2.6624,2.6615,2.663,2.6611,2.6632,2.6617,2.6622,2.6622,2.6623,2.6625,2.6604,2.6637,2.669,2.6696,2.6626,2.6625,2.6624,0,2.6585,2.6601,2.662,2.6623,2.6624,2.6633,2.6634,2.6637,2.6642,2.6649,2.6653,2.666,2.6665,2.6671,2.6665,2.6652,2.6687,2.6667,2.6685,2.6686,2.6694,2.6694,2.6749,2.6696,2.6696,2.6696,2.6696,0,2.6626,2.6644,2.6636,2.6648,2.6667,2.6659,2.6678,2.6677,2.668,2.6691,2.6679,2.669,2.668,2.669,2.6685,2.6703,2.6705,2.6704,2.6702,2.6705,2.6706,2.6709,2.6707,2.6698,2.6697,2.6697,2.6697,0,2.6669,2.6664,2.6684,2.6685,2.6685,2.67,2.67,2.6711,2.6708,2.6722,2.6725,2.6721,2.6732,2.6726,2.6737,2.6734,2.6758,2.6753,2.6757,2.6756,2.6775,2.6773,2.6835,2.6843,2.6784,2.6785,2.6785,0,2.6696,2.671,2.6712,2.6719,2.6721,2.6732,2.6738,2.673,2.6737,2.6742,2.6752,2.6762,2.677,2.6789,2.6786,2.6795,2.679,2.6811,2.6792,2.6794,2.6792,2.6791,2.6793,2.6816,2.6816,2.6817,2.6817,0,2.6745,2.6742,2.6752,2.6761,2.6768,2.6775,2.678,2.6786,2.6778,2.6787,2.6798,2.6804,2.6816,2.6827,2.6834,2.6835,2.6825,2.6824,2.6828,2.6832,2.6834,2.6834,2.6769,2.6822,2.6822,2.6821,2.6821,2.6821,2.6782,2.6793,2.6797,2.6808,2.6811,2.6816,2.6827,2.6826,2.6835,2.6845,2.6839,2.6853,2.6856,2.6865,2.6867,2.6878,2.687,2.6876,2.6878,2.688,2.6883,2.6832,2.6879,2.6879,2.6879,2.6879,2.6879,0,2.6831,2.6832,2.6842,2.6851,2.6859,2.6849,2.6855,2.6863,2.6875,2.6879,2.6887,2.6901,2.6911,2.6909,2.6919,2.6927,2.6923,2.693,2.693,2.693,2.689,2.6885,2.6933,2.6933,2.6933,2.6933,2.6933,2.6933,2.6857,2.6877,2.6874,2.6895,2.6896,2.691,2.6914,2.6919,2.6922,2.6938,2.6947,2.6946,2.6948,2.6957,2.6966,2.6965,2.6969,2.6978,2.6976,2.6938,2.6933,2.6928,2.6923,2.6979,2.6979,2.7016,2.7016,2.7016]}]]